Regional Weather Roundup
Issued by NWS

Home | Current Version | Previous Version | Text Only | Print | Product List | Glossary Off
Versions: 1 2 3 4 5 6 7 8 9 10 11 12 13 14 15 16 17 18 19 20 21 22 23 24 25 26 27 28 29 30 31 32 33 34 35 36 37 38 39 40 41 42 43 44 45 46 47 48 49 50

000
ASUS43 KLMK 170902
RWRKY
KENTUCKY REGIONAL WEATHER ROUNDUP
NATIONAL WEATHER SERVICE LOUISVILLE KY
500 AM EDT THU AUG 17 2017

NOTE "FAIR" INDICATES FEW OR NO CLOUDS BELOW 12,000 FEET
WITH NO SIGNIFICANT WEATHER AND/OR OBSTRUCTIONS TO VISIBILITY.

KYZ001>023-026-027-061>063-070>075-171000-
WESTERN AND SOUTH CENTRAL KENTUCKY

CITY           SKY/WX    TMP DP  RH WIND       PRES   REMARKS
PADUCAH        CLEAR     77  74  90 S8        29.90F
HENDERSON      NOT AVBL
OWENSBORO      CLEAR     75  74  96 S8        29.93R
HOPKINSVILLE   CLEAR     76  75  96 SW9       29.96R
BOWLING GREEN  CLEAR     76  74  93 CALM      29.97R
GLASGOW        CLEAR     74  74 100 CALM      29.98R
$$

KYZ024-025-028>034-038-045-046-053-171000-
NORTH CENTRAL KENTUCKY

CITY           SKY/WX    TMP DP  RH WIND       PRES   REMARKS
LOUISVILLE/SDF PTCLDY    79  74  84 SW7       29.93S
LOUISVILLE/LOU CLEAR     76  74  93 S5        29.94S
FORT KNOX      CLEAR     74  74 100 S7        29.94S
$$

KYZ035>037-039>044-047>052-055>060-089>105-171000-
NORTHEAST KENTUCKY

CITY           SKY/WX    TMP DP  RH WIND       PRES   REMARKS
LEXINGTON      CLEAR     76  71  85 S8        29.98R
COVINGTON      MOCLDY    74  72  93 S7        29.95R
FRANKFORT      CLEAR     75  71  87 S3        29.96R
$$

KYZ054-064>069-076>088-106>120-171000-
SOUTHEAST KENTUCKY

CITY           SKY/WX    TMP DP  RH WIND       PRES   REMARKS
JACKSON        CLEAR     72  70  93 CALM      30.02S
LONDON         CLEAR     73  71  93 S3        30.02R FOG
SOMERSET       NOT AVBL
MIDDLESBORO    FOG       71  71 100 CALM      30.05S VSB 3/4
MONTICELLO     SUNNY     70  70 100 W12       30.02S
$$





USA.gov is the U.S. government's official web portal to all federal, state and local government web resources and services.